| time (UTC) | temp F | wind direction | speed MPH | gust MPH | rain 1hr in | rain 24hr in | rain mn in | humidity % | barometer mb |
| 20260502190604 | 62 | 229 | 0.0 | 4.0 | 0.00 | 0.10 | 0.10 | 42 | 1013.8 |
| 20260502190110 | 63 | 136 | 5.0 | 8.0 | 0.00 | 0.10 | 0.10 | 43 | 1013.9 |
| 20260502185601 | 63 | 195 | 6.0 | 9.0 | 0.00 | 0.10 | 0.10 | 41 | 1014.1 |
| 20260502185103 | 62 | 164 | 8.0 | 12.0 | 0.00 | 0.10 | 0.10 | 41 | 1014.2 |
| 20260502184101 | 61 | 251 | 14.0 | 15.0 | 0.00 | 0.10 | 0.10 | 44 | 1014.4 |
| 20260502183602 | 61 | 198 | 9.0 | 13.0 | 0.00 | 0.10 | 0.10 | 43 | 1014.5 |
| 20260502183103 | 60 | 270 | 0.0 | 5.0 | 0.00 | 0.10 | 0.10 | 45 | 1014.5 |
| 20260502182602 | 60 | 203 | 0.0 | 10.0 | 0.10 | 0.10 | 0.10 | 43 | 1014.8 |
| 20260502182101 | 60 | 174 | 4.0 | 11.0 | 0.10 | 0.10 | 0.10 | 45 | 1014.7 |
| 20260502181310 | 60 | 296 | 4.0 | 5.0 | 0.10 | 0.10 | 0.10 | 45 | 1015.3 |
| 20260502181102 | 60 | 203 | 6.0 | 9.0 | 0.10 | 0.10 | 0.10 | 45 | 1015.0 |
| 20260502180606 | 60 | 210 | 4.0 | 7.0 | 0.10 | 0.10 | 0.10 | 45 | 1015.1 |
| 20260502170202 | 58 | 262 | 11.0 | 16.0 | 0.00 | 0.00 | 0.00 | 44 | 1016.3 |
| 20260502164201 | 57 | 272 | 4.0 | 6.0 | 0.00 | 0.00 | 0.00 | 48 | 1016.5 |
| 20260502163702 | 56 | 203 | 4.0 | 10.0 | 0.00 | 0.00 | 0.00 | 47 | 1016.5 |
| 20260502163202 | 56 | 289 | 0.0 | 4.0 | 0.00 | 0.00 | 0.00 | 47 | 1016.7 |
| 20260502162703 | 56 | 234 | 4.0 | 9.0 | 0.00 | 0.00 | 0.00 | 46 | 1016.7 |
| 20260502162202 | 56 | 222 | 8.0 | 10.0 | 0.00 | 0.00 | 0.00 | 47 | 1016.8 |
| 20260502161701 | 55 | 232 | 6.0 | 12.0 | 0.00 | 0.00 | 0.00 | 48 | 1016.9 |
| 20260502161202 | 55 | 336 | 0.0 | 7.0 | 0.00 | 0.00 | 0.00 | 49 | 1017.0 |
| 20260502160202 | 55 | 244 | 8.0 | 13.0 | 0.00 | 0.00 | 0.00 | 47 | 1017.1 |
| 20260502151702 | 54 | 239 | 5.0 | 9.0 | 0.00 | 0.00 | 0.00 | 51 | 1017.6 |
| 20260502150702 | 54 | 215 | 4.0 | 9.0 | 0.00 | 0.00 | 0.00 | 55 | 1017.7 |
| 20260502150201 | 54 | 168 | 0.0 | 0.0 | 0.00 | 0.00 | 0.00 | 57 | 1017.7 |
| 20260502130701 | 43 | 262 | 4.0 | 7.0 | 0.00 | 0.00 | 0.00 | 75 | 1018.5 |
| 20260502122701 | 40 | 268 | 0.0 | 5.0 | 0.00 | 0.00 | 0.00 | 78 | 1018.5 |
| 20260502121701 | 40 | 270 | 0.0 | 5.0 | 0.00 | 0.00 | 0.00 | 79 | 1018.3 |
| 20260502121201 | 39 | 188 | 0.0 | 5.0 | 0.00 | 0.00 | 0.00 | 80 | 1018.5 |
| 20260502120703 | 39 | 219 | 0.0 | 0.0 | 0.00 | 0.00 | 0.00 | 81 | 1018.5 |
| 20260502115735 | 38 | 240 | 0.0 | 0.0 | 0.00 | 0.00 | 0.00 | 82 | 1018.3 |
| 20260502115702 | 38 | 240 | 0.0 | 0.0 | 0.00 | 0.00 | 0.00 | 82 | 1018.3 |
| 20260502114705 | 37 | 240 | 0.0 | 0.0 | 0.00 | 0.00 | 0.00 | 82 | 1018.1 |
| 20260502114201 | 37 | 240 | 0.0 | 0.0 | 0.00 | 0.00 | 0.00 | 82 | 1018.1 |
| 20260502113201 | 37 | 240 | 0.0 | 0.0 | 0.00 | 0.00 | 0.00 | 82 | 1018.2 |
| 20260502111701 | 38 | 240 | 0.0 | 0.0 | 0.00 | 0.00 | 0.00 | 81 | 1018.1 |
| 20260502111427 | 38 | 240 | 0.0 | 0.0 | 0.00 | 0.00 | 0.00 | 80 | 1018.0 |
| 20260502111202 | 38 | 240 | 0.0 | 0.0 | 0.00 | 0.00 | 0.00 | 80 | 1018.0 |
| 20260502110704 | 38 | 240 | 0.0 | 0.0 | 0.00 | 0.00 | 0.00 | 80 | 1018.0 |
| 20260502104702 | 38 | 254 | 0.0 | 0.0 | 0.00 | 0.00 | 0.00 | 80 | 1018.1 |
| 20260502104202 | 38 | 254 | 0.0 | 0.0 | 0.00 | 0.00 | 0.00 | 80 | 1018.0 |
| 20260502102701 | 38 | 254 | 0.0 | 0.0 | 0.00 | 0.00 | 0.00 | 78 | 1018.0 |
| 20260502101746 | 39 | 254 | 0.0 | 0.0 | 0.00 | 0.00 | 0.00 | 78 | 1018.0 |
| 20260502101703 | 39 | 254 | 0.0 | 0.0 | 0.00 | 0.00 | 0.00 | 78 | 1018.0 |
| 20260502101202 | 39 | 254 | 0.0 | 0.0 | 0.00 | 0.00 | 0.00 | 77 | 1017.9 |
| 20260502100705 | 39 | 254 | 0.0 | 0.0 | 0.00 | 0.00 | 0.00 | 77 | 1018.0 |
| 20260502100305 | 39 | 254 | 0.0 | 0.0 | 0.00 | 0.00 | 0.00 | 77 | 1017.9 |
| 20260502100209 | 39 | 254 | 0.0 | 0.0 | 0.00 | 0.00 | 0.00 | 77 | 1017.9 |
| 20260502091201 | 41 | 244 | 0.0 | 4.0 | 0.00 | 0.00 | 0.00 | 73 | 1017.8 |
| 20260502090701 | 41 | 243 | 0.0 | 3.0 | 0.00 | 0.00 | 0.00 | 73 | 1017.8 |
| 20260502090313 | 41 | 271 | 0.0 | 0.0 | 0.00 | 0.00 | 0.00 | 73 | 1017.8 |
| 20260502090201 | 41 | 271 | 0.0 | 0.0 | 0.00 | 0.00 | 0.00 | 73 | 1017.8 |
| 20260502071202 | 40 | 330 | 0.0 | 0.0 | 0.00 | 0.00 | 0.00 | 75 | 1017.9 |
| 20260502070702 | 40 | 330 | 0.0 | 0.0 | 0.00 | 0.00 | 0.00 | 75 | 1017.9 |
| 20260502065701 | 40 | 330 | 0.0 | 0.0 | 0.00 | 0.00 | 0.00 | 74 | 1017.9 |
| 20260502065332 | 40 | 330 | 0.0 | 0.0 | 0.00 | 0.00 | 0.00 | 74 | 1018.1 |
| 20260502065203 | 40 | 330 | 0.0 | 0.0 | 0.00 | 0.00 | 0.00 | 74 | 1018.1 |
| 20260502064702 | 40 | 330 | 0.0 | 0.0 | 0.00 | 0.00 | 0.00 | 73 | 1018.0 |
| 20260502064204 | 40 | 330 | 0.0 | 0.0 | 0.00 | 0.00 | 0.00 | 73 | 1018.0 |
| 20260502063701 | 41 | 330 | 0.0 | 0.0 | 0.00 | 0.00 | 0.00 | 73 | 1018.0 |
| 20260502062701 | 42 | 330 | 0.0 | 0.0 | 0.00 | 0.00 | 0.00 | 71 | 1018.0 |
| 20260502062201 | 42 | 330 | 0.0 | 0.0 | 0.00 | 0.00 | 0.00 | 71 | 1018.0 |
| 20260502061702 | 42 | 330 | 0.0 | 0.0 | 0.00 | 0.00 | 0.00 | 71 | 1018.0 |
| 20260502060701 | 42 | 330 | 0.0 | 0.0 | 0.00 | 0.00 | 0.00 | 71 | 1018.0 |
| 20260502060335 | 42 | 330 | 0.0 | 0.0 | 0.00 | 0.00 | 0.00 | 71 | 1018.0 |
| 20260502060201 | 42 | 330 | 0.0 | 0.0 | 0.00 | 0.00 | 0.00 | 71 | 1018.0 |
| 20260502055702 | 41 | 330 | 0.0 | 0.0 | 0.00 | 0.00 | 0.00 | 72 | 1018.0 |
| 20260502055203 | 41 | 330 | 0.0 | 0.0 | 0.00 | 0.00 | 0.00 | 73 | 1017.9 |
| 20260502054701 | 41 | 330 | 0.0 | 0.0 | 0.00 | 0.00 | 0.00 | 73 | 1018.0 |
| 20260502054233 | 40 | 330 | 0.0 | 0.0 | 0.00 | 0.00 | 0.00 | 74 | 1018.0 |
| 20260502054201 | 40 | 330 | 0.0 | 0.0 | 0.00 | 0.00 | 0.00 | 74 | 1018.0 |
| 20260502053701 | 40 | 330 | 0.0 | 0.0 | 0.00 | 0.00 | 0.00 | 73 | 1018.0 |
| 20260502053429 | 41 | 330 | 0.0 | 0.0 | 0.00 | 0.00 | 0.00 | 73 | 1018.0 |
| 20260502053202 | 41 | 330 | 0.0 | 0.0 | 0.00 | 0.00 | 0.00 | 73 | 1018.0 |
| 20260502052701 | 41 | 330 | 0.0 | 0.0 | 0.00 | 0.00 | 0.00 | 73 | 1018.0 |
| 20260502052247 | 41 | 330 | 0.0 | 0.0 | 0.00 | 0.00 | 0.00 | 72 | 1018.0 |
| 20260502052201 | 41 | 330 | 0.0 | 0.0 | 0.00 | 0.00 | 0.00 | 72 | 1018.0 |
| 20260502051702 | 41 | 330 | 0.0 | 0.0 | 0.00 | 0.00 | 0.00 | 71 | 1018.0 |
| 20260502051201 | 42 | 330 | 0.0 | 0.0 | 0.00 | 0.00 | 0.00 | 71 | 1017.9 |
| 20260502050701 | 42 | 330 | 0.0 | 0.0 | 0.00 | 0.00 | 0.00 | 70 | 1017.9 |
| 20260502050203 | 42 | 330 | 0.0 | 0.0 | 0.00 | 0.00 | 0.00 | 70 | 1017.9 |
| 20260502045701 | 42 | 330 | 0.0 | 0.0 | 0.00 | 0.00 | 0.00 | 69 | 1017.9 |
| 20260502045203 | 42 | 330 | 0.0 | 0.0 | 0.00 | 0.00 | 0.00 | 69 | 1017.8 |
| 20260502044702 | 43 | 330 | 0.0 | 0.0 | 0.00 | 0.00 | 0.00 | 68 | 1017.8 |
| 20260502044201 | 43 | 330 | 0.0 | 0.0 | 0.00 | 0.00 | 0.00 | 67 | 1017.8 |
| 20260502043702 | 43 | 330 | 0.0 | 0.0 | 0.00 | 0.00 | 0.00 | 67 | 1017.8 |
| 20260502043202 | 43 | 330 | 0.0 | 0.0 | 0.00 | 0.00 | 0.00 | 67 | 1017.8 |
| 20260502042701 | 43 | 330 | 0.0 | 0.0 | 0.00 | 0.00 | 0.00 | 67 | 1017.8 |
| 20260502042202 | 43 | 330 | 0.0 | 0.0 | 0.00 | 0.00 | 0.00 | 66 | 1017.7 |
| 20260502041702 | 44 | 330 | 0.0 | 0.0 | 0.00 | 0.00 | 0.00 | 66 | 1017.7 |
| 20260502041235 | 44 | 330 | 0.0 | 0.0 | 0.00 | 0.00 | 0.00 | 66 | 1017.7 |
| 20260502041201 | 44 | 330 | 0.0 | 0.0 | 0.00 | 0.00 | 0.00 | 66 | 1017.7 |
| 20260502040701 | 44 | 330 | 0.0 | 0.0 | 0.00 | 0.00 | 0.00 | 65 | 1017.7 |
| 20260502040201 | 44 | 330 | 0.0 | 0.0 | 0.00 | 0.00 | 0.00 | 64 | 1017.7 |
| 20260502035702 | 44 | 330 | 0.0 | 0.0 | 0.00 | 0.00 | 0.00 | 65 | 1017.8 |
| 20260502035358 | 44 | 330 | 0.0 | 0.0 | 0.00 | 0.00 | 0.00 | 65 | 1017.8 |
| 20260502035313 | 44 | 330 | 0.0 | 0.0 | 0.00 | 0.00 | 0.00 | 65 | 1017.8 |
| 20260502035201 | 44 | 330 | 0.0 | 0.0 | 0.00 | 0.00 | 0.00 | 65 | 1017.8 |
| 20260502034701 | 44 | 330 | 0.0 | 0.0 | 0.00 | 0.00 | 0.00 | 65 | 1017.8 |
| 20260502034202 | 44 | 330 | 0.0 | 0.0 | 0.00 | 0.00 | 0.00 | 64 | 1017.8 |
| 20260502033701 | 44 | 330 | 0.0 | 0.0 | 0.00 | 0.00 | 0.00 | 65 | 1017.8 |
| 20260502033201 | 45 | 330 | 0.0 | 0.0 | 0.00 | 0.00 | 0.00 | 64 | 1017.8 |
| 20260502032204 | 44 | 330 | 0.0 | 0.0 | 0.00 | 0.00 | 0.00 | 64 | 1017.8 |
| 20260502031702 | 45 | 330 | 0.0 | 0.0 | 0.00 | 0.00 | 0.00 | 65 | 1017.8 |
| 20260502031201 | 45 | 330 | 0.0 | 0.0 | 0.00 | 0.00 | 0.00 | 64 | 1017.9 |
| 20260502030701 | 45 | 330 | 0.0 | 0.0 | 0.00 | 0.00 | 0.00 | 64 | 1017.8 |
| 20260502025703 | 45 | 330 | 0.0 | 0.0 | 0.00 | 0.00 | 0.00 | 63 | 1017.7 |
| 20260502025201 | 45 | 330 | 0.0 | 0.0 | 0.00 | 0.00 | 0.00 | 62 | 1017.8 |
| 20260502024701 | 45 | 330 | 0.0 | 0.0 | 0.00 | 0.00 | 0.00 | 62 | 1017.8 |
| 20260502024202 | 46 | 330 | 0.0 | 0.0 | 0.00 | 0.00 | 0.00 | 61 | 1017.7 |
| 20260502023701 | 46 | 330 | 0.0 | 0.0 | 0.00 | 0.00 | 0.00 | 60 | 1017.7 |
| 20260502023201 | 46 | 330 | 0.0 | 0.0 | 0.00 | 0.00 | 0.00 | 60 | 1017.7 |
| 20260502022701 | 46 | 330 | 0.0 | 0.0 | 0.00 | 0.00 | 0.00 | 59 | 1017.7 |
| 20260502022201 | 47 | 330 | 0.0 | 0.0 | 0.00 | 0.00 | 0.00 | 58 | 1017.6 |
| 20260502020701 | 47 | 330 | 0.0 | 0.0 | 0.00 | 0.00 | 0.00 | 57 | 1017.6 |
| 20260502015701 | 48 | 330 | 0.0 | 0.0 | 0.00 | 0.00 | 0.00 | 55 | 1017.4 |
| 20260502015201 | 48 | 330 | 0.0 | 0.0 | 0.00 | 0.00 | 0.00 | 54 | 1017.3 |
| 20260502014700 | 49 | 330 | 0.0 | 0.0 | 0.00 | 0.00 | 0.00 | 54 | 1017.3 |
| 20260502013201 | 50 | 330 | 0.0 | 0.0 | 0.00 | 0.00 | 0.00 | 51 | 1017.1 |
| 20260502012203 | 51 | 330 | 0.0 | 0.0 | 0.00 | 0.00 | 0.00 | 49 | 1017.0 |
| 20260502011702 | 51 | 330 | 0.0 | 0.0 | 0.00 | 0.00 | 0.00 | 49 | 1017.0 |
| 20260502011202 | 51 | 330 | 0.0 | 0.0 | 0.00 | 0.00 | 0.00 | 49 | 1017.0 |
| 20260502010700 | 51 | 330 | 0.0 | 0.0 | 0.00 | 0.00 | 0.00 | 48 | 1017.0 |
| 20260502010201 | 52 | 330 | 0.0 | 0.0 | 0.00 | 0.00 | 0.00 | 48 | 1016.9 |
| 20260502005701 | 52 | 330 | 0.0 | 0.0 | 0.00 | 0.00 | 0.00 | 47 | 1016.9 |
| 20260502005203 | 52 | 330 | 0.0 | 0.0 | 0.00 | 0.00 | 0.00 | 47 | 1016.9 |
| 20260502004701 | 52 | 330 | 0.0 | 0.0 | 0.00 | 0.00 | 0.00 | 47 | 1016.8 |
| 20260502004200 | 52 | 330 | 0.0 | 2.0 | 0.00 | 0.00 | 0.00 | 46 | 1016.8 |
| 20260502003704 | 52 | 309 | 4.0 | 6.0 | 0.00 | 0.00 | 0.00 | 46 | 1016.8 |
| 20260502003201 | 52 | 250 | 0.0 | 3.0 | 0.00 | 0.00 | 0.00 | 46 | 1016.8 |
| 20260502002701 | 52 | 250 | 0.0 | 0.0 | 0.00 | 0.00 | 0.00 | 46 | 1016.8 |
| 20260502002201 | 52 | 261 | 4.0 | 4.0 | 0.00 | 0.00 | 0.00 | 46 | 1016.8 |
| 20260502001701 | 52 | 278 | 4.0 | 8.0 | 0.00 | 0.00 | 0.00 | 46 | 1016.7 |
| 20260502001201 | 52 | 310 | 0.0 | 0.0 | 0.00 | 0.00 | 0.00 | 46 | 1016.7 |
| 20260502000701 | 52 | 340 | 6.0 | 9.0 | 0.00 | 0.00 | 0.00 | 46 | 1016.7 |
| 20260502000203 | 52 | 320 | 0.0 | 9.0 | 0.00 | 0.00 | 0.00 | 46 | 1016.7 |
| 20260501235700 | 52 | 320 | 0.0 | 3.0 | 0.00 | 0.00 | 0.00 | 46 | 1016.8 |
| 20260501235201 | 52 | 338 | 6.0 | 7.0 | 0.00 | 0.00 | 0.00 | 47 | 1016.9 |
| 20260501234701 | 52 | 326 | 3.0 | 5.0 | 0.00 | 0.00 | 0.00 | 46 | 1017.0 |
| 20260501234201 | 53 | 315 | 7.0 | 8.0 | 0.00 | 0.00 | 0.00 | 45 | 1017.1 |
| 20260501233701 | 52 | 303 | 0.0 | 0.0 | 0.00 | 0.00 | 0.00 | 48 | 1017.1 |
| 20260501233202 | 52 | 303 | 0.0 | 0.0 | 0.00 | 0.00 | 0.00 | 46 | 1017.2 |
| 20260501232700 | 52 | 303 | 0.0 | 0.0 | 0.00 | 0.00 | 0.00 | 46 | 1017.2 |
| 20260501232202 | 52 | 347 | 0.0 | 2.0 | 0.00 | 0.00 | 0.00 | 47 | 1017.1 |
| 20260501231700 | 52 | 244 | 0.0 | 5.0 | 0.00 | 0.00 | 0.00 | 47 | 1017.1 |
| 20260501231200 | 52 | 285 | 0.0 | 3.0 | 0.00 | 0.00 | 0.00 | 47 | 1017.1 |
| 20260501230701 | 53 | 320 | 0.0 | 8.0 | 0.00 | 0.00 | 0.00 | 46 | 1017.1 |
| 20260501230200 | 53 | 329 | 4.0 | 10.0 | 0.00 | 0.00 | 0.00 | 45 | 1017.0 |
| 20260501225709 | 53 | 319 | 2.0 | 10.0 | 0.00 | 0.00 | 0.00 | 45 | 1017.0 |
| 20260501225201 | 53 | 281 | 0.0 | 12.0 | 0.00 | 0.00 | 0.00 | 46 | 1017.0 |
| 20260501224700 | 53 | 213 | 0.0 | 4.0 | 0.00 | 0.00 | 0.00 | 45 | 1016.9 |
| 20260501223700 | 53 | 348 | 0.0 | 7.0 | 0.00 | 0.00 | 0.00 | 45 | 1017.0 |
| 20260501222701 | 52 | 289 | 0.0 | 0.0 | 0.00 | 0.00 | 0.00 | 48 | 1017.0 |
| 20260501222202 | 52 | 289 | 0.0 | 0.0 | 0.00 | 0.00 | 0.00 | 48 | 1017.0 |
| 20260501221701 | 52 | 289 | 0.0 | 0.0 | 0.00 | 0.00 | 0.00 | 47 | 1017.1 |
| 20260501221201 | 51 | 289 | 0.0 | 0.0 | 0.00 | 0.00 | 0.00 | 48 | 1017.1 |
| 20260501220700 | 52 | 312 | 0.0 | 8.0 | 0.00 | 0.00 | 0.00 | 47 | 1017.2 |
| 20260501220201 | 52 | 343 | 0.0 | 0.0 | 0.00 | 0.00 | 0.00 | 47 | 1017.1 |
| 20260501215700 | 53 | 319 | 4.0 | 12.0 | 0.00 | 0.00 | 0.00 | 47 | 1017.1 |
| 20260501214704 | 52 | 323 | 0.0 | 5.0 | 0.00 | 0.00 | 0.00 | 46 | 1017.1 |
| 20260501214201 | 52 | 309 | 3.0 | 8.0 | 0.00 | 0.00 | 0.00 | 46 | 1017.1 |
| 20260501213700 | 52 | 300 | 0.0 | 13.0 | 0.00 | 0.00 | 0.00 | 46 | 1017.1 |
| 20260501213200 | 52 | 262 | 3.0 | 10.0 | 0.00 | 0.00 | 0.00 | 48 | 1017.1 |
| 20260501212201 | 52 | 313 | 0.0 | 5.0 | 0.00 | 0.00 | 0.00 | 47 | 1017.1 |
| 20260501211703 | 53 | 306 | 9.0 | 16.0 | 0.00 | 0.00 | 0.00 | 46 | 1017.1 |
| 20260501211700 | 53 | 366 | 9.0 | 16.0 | 0.00 | 0.00 | 3.00 | 46 | 1017.1 |
| 20260501211201 | 53 | 270 | 0.0 | 0.0 | 0.00 | 0.00 | 0.00 | 47 | 1017.1 |
| 20260501210703 | 53 | 292 | 8.0 | 10.0 | 0.00 | 0.00 | 0.00 | 46 | 1017.2 |
| 20260501210206 | 53 | 317 | 0.0 | 0.0 | 0.00 | 0.00 | 0.00 | 47 | 1017.2 |
| 20260501205700 | 52 | 292 | 5.0 | 10.0 | 0.00 | 0.00 | 0.00 | 47 | 1017.2 |
| 20260501205201 | 52 | 358 | 0.0 | 14.0 | 0.00 | 0.00 | 0.00 | 45 | 1017.3 |
| 20260501204702 | 53 | 331 | 5.0 | 10.0 | 0.00 | 0.00 | 0.00 | 46 | 1017.4 |
| 20260501203701 | 51 | 296 | 0.0 | 5.0 | 0.00 | 0.00 | 0.00 | 47 | 1017.4 |
| 20260501203200 | 51 | 316 | 8.0 | 11.0 | 0.00 | 0.00 | 0.00 | 47 | 1017.5 |
| 20260501202700 | 52 | 8 | 6.0 | 11.0 | 0.00 | 0.00 | 0.00 | 48 | 1017.4 |
| 20260501201701 | 51 | 358 | 0.0 | 8.0 | 0.00 | 0.00 | 0.00 | 48 | 1017.4 |
| 20260501201200 | 51 | 322 | 6.0 | 7.0 | 0.00 | 0.00 | 0.00 | 48 | 1017.4 |
| 20260501200700 | 52 | 22 | 4.0 | 4.0 | 0.00 | 0.00 | 0.00 | 51 | 1017.5 |
| 20260501200201 | 51 | 313 | 4.0 | 13.0 | 0.00 | 0.00 | 0.00 | 47 | 1017.6 |
| 20260501195702 | 51 | 324 | 7.0 | 12.0 | 0.00 | 0.00 | 0.00 | 48 | 1017.6 |
| 20260501195202 | 51 | 309 | 8.0 | 12.0 | 0.00 | 0.00 | 0.00 | 48 | 1017.5 |
| 20260501194700 | 51 | 298 | 0.0 | 5.0 | 0.00 | 0.00 | 0.00 | 49 | 1017.5 |
| 20260501194201 | 51 | 67 | 6.0 | 6.0 | 0.00 | 0.00 | 0.00 | 48 | 1017.6 |
| 20260501193701 | 51 | 46 | 0.0 | 0.0 | 0.00 | 0.00 | 0.00 | 51 | 1017.6 |
| 20260501193200 | 51 | 16 | 0.0 | 5.0 | 0.00 | 0.00 | 0.00 | 49 | 1017.6 |
| 20260501192700 | 51 | 53 | 0.0 | 9.0 | 0.00 | 0.00 | 0.00 | 50 | 1017.6 |
| 20260501192233 | 51 | 324 | 5.0 | 14.0 | 0.00 | 0.00 | 0.00 | 48 | 1017.7 |
| 20260501192201 | 51 | 324 | 5.0 | 14.0 | 0.00 | 0.00 | 0.00 | 48 | 1017.7 |
| 20260501191700 | 51 | 329 | 6.0 | 7.0 | 0.00 | 0.00 | 0.00 | 51 | 1017.6 |
| 20260501191200 | 50 | 43 | 0.0 | 10.0 | 0.00 | 0.00 | 0.00 | 51 | 1017.6 |